Tracking 19563 objects as of 20-Mar-2019
HD Live streaming from Space Station
objects crossing your sky now

COSMOS 2154

Track COSMOS 2154 now!
10-day predictions
COSMOS 2154 is classified as:


NORAD ID: 21666
Int'l Code: 1991-059A
Perigee: 976.2 km
Apogee: 1,013.4 km
Inclination: 82.9 °
Period: 104.9 minutes
Semi major axis: 7365 km
RCS: 2.347 m2 (large)
Launch date: August 22, 1991
Source: Commonwealth of Independent States (former USSR) (CIS)
Launch site: PLESETSK MISSILE AND SPACE COMPLEX (PKMTR)
aabbcc
Your satellite tracking list
Your tracking list is empty




NASA's NSSDC Master Catalog

Two Line Element Set (TLE):
1 21666U 91059A   19078.53249846 +.00000044 +00000-0 +31255-4 0  9999
2 21666 082.9028 274.5427 0025289 012.4815 016.5000 13.73317972381557
Source of the keplerian elements: AFSPC